| time (UTC) | temp F | wind direction | speed MPH | gust MPH | rain 1hr in | rain 24hr in | rain mn in | humidity % | barometer mb |
| 20260502123016 | 47 | 24 | 0.0 | 3.0 | 0.00 | 0.00 | 0.00 | 60 | 1014.1 |
| 20260502121513 | 47 | 294 | 0.0 | 3.0 | 0.00 | 0.00 | 0.00 | 59 | 1014.1 |
| 20260502114508 | 47 | 30 | 0.0 | 6.0 | 0.00 | 0.00 | 0.00 | 58 | 1013.8 |
| 20260502113006 | 47 | 314 | 0.0 | 1.0 | 0.00 | 0.00 | 0.00 | 57 | 1013.5 |
| 20260502111505 | 47 | 314 | 0.0 | 0.0 | 0.00 | 0.00 | 0.00 | 54 | 1013.6 |
| 20260502110004 | 47 | 314 | 0.0 | 3.0 | 0.00 | 0.00 | 0.00 | 53 | 1013.5 |
| 20260502104503 | 47 | 315 | 0.0 | 5.0 | 0.00 | 0.00 | 0.00 | 51 | 1013.4 |
| 20260502103003 | 48 | 281 | 0.0 | 3.0 | 0.00 | 0.00 | 0.00 | 51 | 1013.5 |
| 20260502101625 | 48 | 281 | 0.0 | 4.0 | 0.00 | 0.00 | 0.00 | 51 | 1013.5 |
| 20260502090107 | 49 | 292 | 0.0 | 4.0 | 0.00 | 0.00 | 0.00 | 58 | 1013.5 |
| 20260502071536 | 50 | 299 | 1.0 | 5.0 | 0.00 | 0.00 | 0.00 | 67 | 1012.8 |
| 20260502070052 | 50 | 299 | 0.0 | 3.0 | 0.00 | 0.00 | 0.00 | 66 | 1012.9 |
| 20260502064534 | 50 | 299 | 0.0 | 3.0 | 0.00 | 0.00 | 0.00 | 66 | 1012.9 |
| 20260502063037 | 51 | 302 | 0.0 | 2.0 | 0.00 | 0.00 | 0.00 | 65 | 1013.1 |
| 20260502061530 | 51 | 302 | 0.0 | 2.0 | 0.00 | 0.00 | 0.00 | 64 | 1013.2 |
| 20260502060027 | 52 | 302 | 0.0 | 3.0 | 0.00 | 0.00 | 0.00 | 63 | 1013.3 |
| 20260502054525 | 52 | 302 | 0.0 | 2.0 | 0.00 | 0.00 | 0.00 | 63 | 1013.1 |
| 20260502053024 | 52 | 336 | 0.0 | 5.0 | 0.00 | 0.00 | 0.00 | 61 | 1013.1 |
| 20260502051524 | 53 | 285 | 0.0 | 5.0 | 0.00 | 0.00 | 0.00 | 61 | 1013.1 |
| 20260502050026 | 53 | 325 | 2.0 | 9.0 | 0.00 | 0.00 | 0.00 | 61 | 1013.2 |
| 20260502044518 | 54 | 275 | 0.0 | 4.0 | 0.00 | 0.00 | 0.00 | 64 | 1013.3 |
| 20260502043016 | 54 | 275 | 0.0 | 4.0 | 0.00 | 0.00 | 0.00 | 63 | 1013.2 |
| 20260502041513 | 55 | 275 | 0.0 | 3.0 | 0.00 | 0.00 | 0.00 | 64 | 1013.2 |
| 20260502040011 | 55 | 277 | 0.0 | 2.0 | 0.00 | 0.00 | 0.00 | 63 | 1013.1 |
| 20260502034521 | 56 | 277 | 0.0 | 3.0 | 0.00 | 0.00 | 0.00 | 62 | 1013.1 |
| 20260502033011 | 56 | 277 | 0.0 | 2.0 | 0.00 | 0.00 | 0.00 | 60 | 1013.0 |
| 20260502031509 | 57 | 277 | 0.0 | 1.0 | 0.00 | 0.00 | 0.00 | 59 | 1012.9 |
| 20260502030008 | 57 | 277 | 0.0 | 2.0 | 0.00 | 0.00 | 0.00 | 58 | 1012.5 |
| 20260502024509 | 58 | 277 | 0.0 | 7.0 | 0.00 | 0.00 | 0.00 | 58 | 1012.6 |
| 20260502023008 | 58 | 260 | 0.0 | 2.0 | 0.00 | 0.00 | 0.00 | 59 | 1012.4 |
| 20260502021507 | 58 | 260 | 0.0 | 0.0 | 0.00 | 0.00 | 0.00 | 62 | 1011.9 |
| 20260502020007 | 58 | 260 | 0.0 | 0.0 | 0.00 | 0.00 | 0.00 | 61 | 1011.4 |
| 20260502014507 | 58 | 260 | 0.0 | 0.0 | 0.00 | 0.00 | 0.00 | 61 | 1011.3 |
| 20260502013006 | 57 | 260 | 0.0 | 8.0 | 0.00 | 0.00 | 0.00 | 61 | 1011.3 |
| 20260502011516 | 57 | 300 | 0.0 | 0.0 | 0.00 | 0.00 | 0.00 | 63 | 1010.9 |
| 20260502010010 | 58 | 300 | 0.0 | 0.0 | 0.00 | 0.00 | 0.00 | 60 | 1010.9 |
| 20260502004505 | 58 | 300 | 0.0 | 5.0 | 0.00 | 0.00 | 0.00 | 60 | 1010.6 |
| 20260502003004 | 59 | 246 | 0.0 | 5.0 | 0.00 | 0.00 | 0.00 | 58 | 1010.4 |
| 20260502001504 | 59 | 120 | 0.0 | 3.0 | 0.00 | 0.00 | 0.00 | 59 | 1010.2 |
| 20260502000003 | 59 | 342 | 0.0 | 4.0 | 0.00 | 0.00 | 0.00 | 57 | 1009.7 |
| 20260501234502 | 60 | 342 | 0.0 | 3.0 | 0.00 | 0.00 | 0.00 | 58 | 1009.2 |
| 20260501233004 | 60 | 342 | 0.0 | 2.0 | 0.00 | 0.00 | 0.00 | 56 | 1009.3 |
| 20260501231600 | 61 | 342 | 0.0 | 4.0 | 0.00 | 0.00 | 0.00 | 56 | 1009.4 |
| 20260501230104 | 62 | 338 | 0.0 | 3.0 | 0.00 | 0.00 | 0.00 | 55 | 1009.5 |
| 20260501224600 | 62 | 338 | 0.0 | 2.0 | 0.00 | 0.00 | 0.00 | 53 | 1009.5 |
| 20260501223059 | 62 | 313 | 0.0 | 4.0 | 0.00 | 0.00 | 0.00 | 54 | 1009.5 |
| 20260501221558 | 62 | 286 | 0.0 | 0.0 | 0.00 | 0.00 | 0.00 | 54 | 1009.6 |
| 20260501220136 | 63 | 286 | 0.0 | 3.0 | 0.00 | 0.00 | 0.00 | 50 | 1009.8 |
| 20260501214555 | 63 | 286 | 0.0 | 3.0 | 0.00 | 0.00 | 0.00 | 53 | 1009.8 |
| 20260501213102 | 63 | 286 | 1.0 | 4.0 | 0.00 | 0.00 | 0.00 | 51 | 1010.0 |
| 20260501211554 | 63 | 323 | 1.0 | 4.0 | 0.00 | 0.00 | 0.00 | 50 | 1010.2 |
| 20260501210105 | 63 | 327 | 0.0 | 2.0 | 0.00 | 0.00 | 0.00 | 52 | 1010.1 |
| 20260501204554 | 63 | 327 | 0.0 | 6.0 | 0.00 | 0.00 | 0.00 | 49 | 1010.4 |
| 20260501203049 | 63 | 331 | 0.0 | 4.0 | 0.00 | 0.00 | 0.00 | 47 | 1010.5 |
| 20260501201546 | 64 | 331 | 1.0 | 6.0 | 0.00 | 0.00 | 0.00 | 48 | 1010.7 |
| 20260501200046 | 63 | 20 | 0.0 | 4.0 | 0.00 | 0.00 | 0.00 | 48 | 1011.0 |
| 20260501194545 | 63 | 17 | 0.0 | 5.0 | 0.00 | 0.00 | 0.00 | 48 | 1011.5 |
| 20260501193047 | 63 | 26 | 0.0 | 4.0 | 0.00 | 0.00 | 0.00 | 48 | 1011.6 |
| 20260501191537 | 63 | 57 | 0.0 | 4.0 | 0.00 | 0.00 | 0.00 | 49 | 1011.8 |
| 20260501190038 | 63 | 332 | 1.0 | 3.0 | 0.00 | 0.00 | 0.00 | 45 | 1012.0 |
| 20260501184533 | 62 | 347 | 0.0 | 4.0 | 0.00 | 0.00 | 0.00 | 47 | 1012.1 |
| 20260501183037 | 62 | 29 | 1.0 | 3.0 | 0.00 | 0.00 | 0.00 | 48 | 1012.3 |
| 20260501181549 | 61 | 48 | 0.0 | 4.0 | 0.00 | 0.00 | 0.00 | 49 | 1012.6 |
| 20260501180024 | 61 | 56 | 0.0 | 3.0 | 0.00 | 0.00 | 0.00 | 49 | 1012.9 |
| 20260501174523 | 60 | 67 | 0.0 | 5.0 | 0.00 | 0.00 | 0.00 | 49 | 1012.9 |
| 20260501173021 | 60 | 19 | 0.0 | 6.0 | 0.00 | 0.00 | 0.00 | 50 | 1013.3 |
| 20260501171520 | 60 | 293 | 0.0 | 3.0 | 0.00 | 0.00 | 0.00 | 51 | 1013.4 |
| 20260501170022 | 59 | 293 | 0.0 | 3.0 | 0.00 | 0.00 | 0.00 | 52 | 1014.0 |
| 20260501164524 | 58 | 293 | 0.0 | 5.0 | 0.00 | 0.00 | 0.00 | 53 | 1014.1 |
| 20260501163016 | 57 | 293 | 0.0 | 5.0 | 0.00 | 0.00 | 0.00 | 52 | 1014.4 |
| 20260501161504 | 56 | 336 | 0.0 | 3.0 | 0.00 | 0.00 | 0.00 | 54 | 1014.7 |
| 20260501160001 | 55 | 336 | 0.0 | 3.0 | 0.00 | 0.00 | 0.00 | 55 | 1014.9 |
| 20260501154607 | 55 | 336 | 0.0 | 4.0 | 0.00 | 0.00 | 0.00 | 55 | 1015.0 |
| 20260501153058 | 54 | 342 | 0.0 | 4.0 | 0.00 | 0.00 | 0.00 | 58 | 1015.1 |
| 20260501151553 | 53 | 342 | 0.0 | 3.0 | 0.00 | 0.00 | 0.00 | 60 | 1015.3 |
| 20260501150054 | 52 | 11 | 0.0 | 5.0 | 0.00 | 0.00 | 0.00 | 61 | 1015.3 |
| 20260501144555 | 52 | 5 | 0.0 | 3.0 | 0.00 | 0.00 | 0.00 | 61 | 1015.5 |
| 20260501143107 | 52 | 5 | 0.0 | 2.0 | 0.00 | 0.00 | 0.00 | 62 | 1015.6 |